Location: Poughquag
(41.6090°N, 73.6820°W)
Time: 06:16:16
(UTC-05:00)

Envisat - Visible Passes

Search period start: 23 January 2021 00:00
Search period end: 02 February 2021 00:00
Orbit: 764 x 766 km, 98.1° (Epoch: 23 January)

Date Brightness Start Highest point End Pass type
(mag) Time Alt. Az. Time Alt. Az. Time Alt. Az.
23 Jan 6.2 04:15:36 10° ENE 04:17:13 11° E 04:18:50 10° ESE visible
23 Jan 2.9 05:51:44 10° N 05:56:50 81° WNW 06:01:54 10° SSW visible
24 Jan 4.1 05:15:05 10° NNE 05:19:59 45° E 05:24:49 10° S visible
24 Jan 6.1 18:10:59 10° SW 18:14:01 16° W 18:17:04 10° NW visible
25 Jan 5.5 04:39:08 10° NE 04:42:55 21° E 04:46:40 10° SE visible
25 Jan 3.2 06:17:18 10° N 06:22:09 46° WNW 06:26:59 10° SW visible
25 Jan 4.9 17:32:17 10° SSW 17:36:53 35° W 17:41:31 10° NNW visible
26 Jan 3.1 05:40:19 10° NNE 05:45:26 80° ESE 05:50:30 10° S visible
27 Jan 4.6 05:03:50 10° NNE 05:08:30 36° E 05:13:09 10° SSE visible
27 Jan 5.9 17:58:48 10° SW 18:02:30 20° W 18:06:12 10° NW visible
28 Jan 5.8 04:28:15 10° NE 04:31:23 16° E 04:34:30 10° SE visible
28 Jan 3.0 06:05:47 10° N 06:10:47 59° WNW 06:15:46 10° SSW visible
29 Jan 3.5 05:28:57 10° NNE 05:34:00 63° E 05:39:02 10° S visible
29 Jan 6.5 18:26:47 10° WSW 18:28:11 11° W 18:29:36 10° WNW visible
30 Jan 5.0 04:52:39 10° NE 04:57:02 28° E 05:01:22 10° SSE visible
30 Jan 3.6 06:31:29 10° N 06:36:03 34° WNW 06:40:36 10° SW visible
30 Jan 5.6 17:46:49 10° SSW 17:50:59 25° W 17:55:10 10° NW visible
31 Jan 6.1 04:17:42 10° ENE 04:19:51 13° E 04:21:59 10° ESE visible
31 Jan 2.9 05:54:19 10° N 05:59:24 75° WNW 06:04:28 10° SSW visible
01 Feb 3.9 05:17:37 10° NNE 05:22:34 49° E 05:27:28 10° S visible
01 Feb 6.2 18:13:54 10° WSW 18:16:38 14° W 18:19:23 10° WNW visible
